STARLINK-4706, 53779

Orbit data source: Space-Track

STARLINK-4706, 53779 is a payload satellite owned by SpaceX/Seattle (US) in LEO that was launched on Sun, 11 Sep 2022 UTC via an FALCON 9 launch vehicle from the Air Force Eastern Test Range (AFETR). Payload-class satellites include a variety of spacecraft equipped with specific instruments for various scientific and technological missions. These include communications satellites like Starlink; space stations such as the ISS; scientific satellites like the Hubble; Earth observation satellites from companies like Planet Labs, Umbra, and HawkEye 360; GPS; miniature CubeSats for education and research; and military/defense satellites.

Loading next visibility...
Identifier
53779, 2022-111G
Orbit
LEO
Country
Flag of USUS
Related business
Manufacturer
SpaceX/Seattle
Mission
Operational Commercial Communications
Bus & Motor
STARLINK, Unknown motor
Mass
305 kg wet, ~290 kg dry
Launch date (UTC)
2022-09-11 (3 years ago)
Launch vehicle
FALCON 9
Launch site
Air Force Eastern Test Range (AFETR)
Object type
Payload
Rocket body
Debris
Shape & HBR
Box + 1 Pan, 10.1 m
Radar Cross Section
13.562 m², Large (>1 m²)

Expand to show TLE details & history
Last TLE update: 8 hours ago

TLE from 8 hours ago
0 STARLINK-4706
1 53779U 22111G   26035.36512701 -.00000483  00000-0 -12235-4 0  9993
2 53779  53.2179  63.8332 0001320  88.3134 271.8009 15.08835089188661
Epoch: 2026-02-04T08:45Z
TLE epoch observation values (Epoch: 2026-02-04T08:45:46.973Z)
Latitude
-0.00006°
Longitude
157.85468°
Altitude
540.627 km
Speed
7.593 km/s
True Right ascension
04h 15m 19s
True Declination
0° 00' 00"
Sunlit
Object was in daylight at epoch
Visualization orbit readout
Latitude
Unknown
Longitude
Unknown
Altitude
Unknown
Speed
Unknown
Apparent Right ascension
Unknown
Apparent Declination
Unknown
Sunlit
N/A
Visualization observer readout
Local Sidereal Time
18:43:00
Azimuth
Unknown
Elevation
Unknown
Doppler factor
Unknown
Orbital elements
Apogee altitude
540.916 km
Perigee altitude
539.09 km
Semi-major axis
6,918.14 km
Eccentricity
0.00013
Inclination
53.2179°
RAAN
63.8332°
Arg. of periapsis
88.3134°
True anomaly
271.78578°
Mean anomaly
271.8009°
Eccentric anomaly
271.79334°
Mean motion
3.77189 °/min
Orbital period
95.44 mins
BSTAR
-0.000012235
Loading maneuver chart data...
Computing Atmospheric mass density...
Loading historical data...
Loading historical data...
Loading historical data...
Loading historical data...
Loading historical data...
Loading historical data...
Loading historical data...

Documentation

Showing up to 5 results
|